User: anonymous   Login
Location: Baix
(44.7118°N, 4.7648°E)
Time: 06:29:17
(UTC+00:00)
Language:

ADEOS II - Orbit

View from above orbital plane
View from above orbital plane
View from above satellite
View from above satellite

Ground track
Ground track

The orbit data is extracted from the following two-line orbital elements,

1 27597U 02056A   20292.83343638  .00000021  00000-0  25896-4 0  9993
2 27597  98.5323 237.3837 0001453  41.2904 318.8386 14.27463807929412
Epoch (UTC): 18 October 2020 20:00:08
Eccentricity: 0.0001453
inclination: 98.5323°
perigee height: 799 km
apogee height: 801 km
right ascension of ascending node: 237.3837°
argument of perigee: 41.2904°
revolutions per day: 14.27463807
mean anomaly at epoch: 318.8386°
orbit number at epoch: 92941

The dashed part of the orbit path shows where the satellite is in the earth's shadow,  

DLR